STARLINK-31874

Last updated on Fri Sep 20 2024 00:02:03 GMT+0000 (Coordinated Universal Time)

1 60603U 24150W 24263.35808997 .00012061 00000+0 31100-3 0 9990 2 60603 53.1591 280.5677 0002242 60.9872 299.1357 15.39623320 5890
UTC large
Height (km)
Speed (km/s)
/
Latitude / Longitude
Inclination (degrees)
Orbital Period (minutes)
Azimuth
Elevation
Range (km)
Doppler Factor

Next 0 passes for location: London (51.5072 / 0.1276)

Sorry there are no passes over London.